| time (UTC) | temp F | wind direction | speed knots | gust knots | rain 1hr in | rain 24hr in | rain mn in | humidity % | barometer mb |
| 20260505065533 | 56 | 0.0 | 0.0 | 0.00 | 0.00 | 0.00 | 85 | 1013.7 | |
| 20260505064553 | 57 | 0.0 | 0.0 | 0.00 | 0.00 | 0.00 | 85 | 1013.6 | |
| 20260505063533 | 57 | 0.0 | 0.0 | 0.00 | 0.00 | 0.00 | 84 | 1013.5 | |
| 20260505062533 | 57 | 0.0 | 0.0 | 0.00 | 0.00 | 0.00 | 84 | 1013.5 | |
| 20260505061559 | 58 | 0.0 | 0.0 | 0.00 | 0.00 | 0.00 | 83 | 1013.4 | |
| 20260505060533 | 58 | 0.0 | 0.0 | 0.00 | 0.00 | 0.00 | 82 | 1013.2 | |
| 20260505055533 | 58 | 0.0 | 0.0 | 0.00 | 0.00 | 0.00 | 82 | 1013.2 | |
| 20260505054633 | 59 | 0.0 | 0.0 | 0.00 | 0.00 | 0.00 | 81 | 1013.2 | |
| 20260505053533 | 59 | 70 | 0.0 | 0.9 | 0.00 | 0.00 | 0.00 | 80 | 1013.1 |
| 20260505052628 | 59 | 0.0 | 0.0 | 0.00 | 0.00 | 0.00 | 80 | 1012.9 | |
| 20260505051533 | 59 | 0.0 | 0.0 | 0.00 | 0.00 | 0.00 | 79 | 1012.8 | |
| 20260505050553 | 60 | 0.0 | 0.0 | 0.00 | 0.00 | 0.00 | 79 | 1012.7 | |
| 20260505041533 | 63 | 0.0 | 0.0 | 0.00 | 0.00 | 0.00 | 70 | 1012.3 | |
| 20260505040533 | 63 | 0.0 | 0.0 | 0.00 | 0.00 | 0.00 | 69 | 1012.1 | |
| 20260505035613 | 64 | 70 | 0.0 | 0.9 | 0.00 | 0.00 | 0.00 | 68 | 1012.0 |
| 20260505034519 | 64 | 0.0 | 0.0 | 0.00 | 0.00 | 0.00 | 67 | 1012.0 | |
| 20260505033544 | 65 | 0.0 | 0.0 | 0.00 | 0.00 | 0.00 | 65 | 1011.9 | |
| 20260505032554 | 66 | 71 | 0.0 | 0.9 | 0.00 | 0.00 | 0.00 | 64 | 1011.8 |
| 20260505031529 | 67 | 0 | 0.9 | 4.3 | 0.00 | 0.00 | 0.00 | 62 | 1011.8 |
| 20260505030551 | 68 | 57 | 0.9 | 1.7 | 0.00 | 0.00 | 0.00 | 60 | 1011.5 |
| 20260505025533 | 68 | 45 | 0.9 | 2.6 | 0.00 | 0.00 | 0.00 | 58 | 1011.5 |
| 20260505024533 | 68 | 42 | 0.9 | 4.3 | 0.00 | 0.00 | 0.00 | 58 | 1011.3 |
| 20260505023533 | 69 | 28 | 0.9 | 1.7 | 0.00 | 0.00 | 0.00 | 57 | 1011.3 |
| 20260505022553 | 69 | 62 | 0.9 | 2.6 | 0.00 | 0.00 | 0.00 | 56 | 1011.3 |
| 20260505021559 | 70 | 181 | 0.0 | 1.7 | 0.00 | 0.00 | 0.00 | 55 | 1011.3 |
| 20260505020533 | 71 | 112 | 0.9 | 1.7 | 0.00 | 0.00 | 0.00 | 52 | 1011.3 |
| 20260505015529 | 72 | 136 | 0.9 | 1.7 | 0.00 | 0.00 | 0.00 | 49 | 1011.3 |
| 20260505014533 | 74 | 169 | 0.9 | 2.6 | 0.00 | 0.00 | 0.00 | 47 | 1011.2 |
| 20260505013553 | 75 | 134 | 0.9 | 1.7 | 0.00 | 0.00 | 0.00 | 45 | 1011.3 |
| 20260505012533 | 77 | 22 | 1.7 | 4.3 | 0.00 | 0.00 | 0.00 | 45 | 1011.2 |
| 20260505011528 | 78 | 157 | 0.0 | 0.9 | 0.00 | 0.00 | 0.00 | 45 | 1011.2 |
| 20260505010533 | 80 | 26 | 0.9 | 1.7 | 0.00 | 0.00 | 0.00 | 40 | 1011.2 |
| 20260505005534 | 81 | 84 | 0.9 | 2.6 | 0.00 | 0.00 | 0.00 | 36 | 1011.2 |
| 20260505004520 | 80 | 34 | 0.9 | 1.7 | 0.00 | 0.00 | 0.00 | 40 | 1011.1 |
| 20260505003533 | 82 | 78 | 0.0 | 0.9 | 0.00 | 0.00 | 0.00 | 39 | 1011.2 |
| 20260505002533 | 83 | 182 | 0.9 | 1.7 | 0.00 | 0.00 | 0.00 | 39 | 1011.1 |
| 20260505001533 | 83 | 45 | 0.9 | 2.6 | 0.00 | 0.00 | 0.00 | 38 | 1011.1 |
| 20260505000628 | 82 | 159 | 0.0 | 0.9 | 0.00 | 0.00 | 0.00 | 37 | 1011.1 |
| 20260504235530 | 83 | 208 | 0.9 | 1.7 | 0.00 | 0.00 | 0.00 | 35 | 1011.1 |
| 20260504234552 | 84 | 186 | 0.9 | 1.7 | 0.00 | 0.00 | 0.00 | 37 | 1011.2 |
| 20260504233533 | 82 | 86 | 0.9 | 2.6 | 0.00 | 0.00 | 0.00 | 35 | 1011.3 |
| 20260504232520 | 82 | 75 | 0.9 | 1.7 | 0.00 | 0.00 | 0.00 | 35 | 1011.3 |
| 20260504231605 | 83 | 169 | 0.9 | 1.7 | 0.00 | 0.00 | 0.00 | 38 | 1011.3 |
| 20260504230553 | 82 | 208 | 1.7 | 2.6 | 0.00 | 0.00 | 0.00 | 35 | 1011.3 |
| 20260504225528 | 81 | 180 | 0.9 | 2.6 | 0.00 | 0.00 | 0.00 | 37 | 1011.4 |
| 20260504224552 | 81 | 77 | 0.9 | 4.3 | 0.00 | 0.00 | 0.00 | 37 | 1011.4 |
| 20260504223533 | 81 | 171 | 0.9 | 2.6 | 0.00 | 0.00 | 0.00 | 36 | 1011.4 |
| 20260504222533 | 81 | 180 | 0.9 | 2.6 | 0.00 | 0.00 | 0.00 | 42 | 1011.6 |
| 20260504221600 | 80 | 98 | 0.0 | 1.7 | 0.00 | 0.00 | 0.00 | 39 | 1011.5 |
| 20260504220520 | 80 | 14 | 0.0 | 1.7 | 0.00 | 0.00 | 0.00 | 37 | 1011.8 |
| 20260504215544 | 80 | 50 | 1.7 | 2.6 | 0.00 | 0.00 | 0.00 | 36 | 1012.1 |
| 20260504214628 | 79 | 360 | 1.7 | 4.3 | 0.00 | 0.00 | 0.00 | 37 | 1012.0 |
| 20260504213548 | 80 | 6 | 1.7 | 4.3 | 0.00 | 0.00 | 0.00 | 37 | 1012.1 |
| 20260504212552 | 80 | 51 | 0.9 | 1.7 | 0.00 | 0.00 | 0.00 | 37 | 1012.1 |
| 20260504211616 | 79 | 70 | 0.9 | 1.7 | 0.00 | 0.00 | 0.00 | 39 | 1012.1 |
| 20260504210535 | 80 | 128 | 0.0 | 0.9 | 0.00 | 0.00 | 0.00 | 40 | 1012.2 |
| 20260504205600 | 80 | 359 | 1.7 | 5.2 | 0.00 | 0.00 | 0.00 | 41 | 1012.3 |
| 20260504204520 | 79 | 39 | 1.7 | 4.3 | 0.00 | 0.00 | 0.00 | 41 | 1012.2 |
| 20260504203544 | 79 | 44 | 0.9 | 4.3 | 0.00 | 0.00 | 0.00 | 41 | 1012.3 |
| 20260504202608 | 79 | 71 | 0.9 | 1.7 | 0.00 | 0.00 | 0.00 | 41 | 1012.3 |
| 20260504201548 | 79 | 49 | 0.9 | 1.7 | 0.00 | 0.00 | 0.00 | 42 | 1012.4 |
| 20260504200552 | 79 | 122 | 0.9 | 1.7 | 0.00 | 0.00 | 0.00 | 42 | 1012.4 |
| 20260504195656 | 78 | 128 | 0.9 | 2.6 | 0.00 | 0.00 | 0.00 | 43 | 1012.5 |
| 20260504194533 | 78 | 145 | 0.9 | 1.7 | 0.00 | 0.00 | 0.00 | 44 | 1012.4 |
| 20260504193600 | 78 | 83 | 0.9 | 1.7 | 0.00 | 0.00 | 0.00 | 44 | 1012.5 |
| 20260504192520 | 77 | 31 | 0.9 | 1.7 | 0.00 | 0.00 | 0.00 | 45 | 1012.6 |
| 20260504191545 | 76 | 96 | 1.7 | 2.6 | 0.00 | 0.00 | 0.00 | 47 | 1012.7 |
| 20260504190608 | 76 | 34 | 0.9 | 2.6 | 0.00 | 0.00 | 0.00 | 46 | 1012.9 |
| 20260504185528 | 76 | 27 | 0.9 | 4.3 | 0.00 | 0.00 | 0.00 | 47 | 1012.9 |
| 20260504184552 | 74 | 182 | 1.7 | 2.6 | 0.00 | 0.00 | 0.00 | 54 | 1012.8 |
| 20260504183616 | 75 | 174 | 0.9 | 1.7 | 0.00 | 0.00 | 0.00 | 52 | 1013.0 |
| 20260504182553 | 76 | 78 | 0.0 | 0.9 | 0.00 | 0.00 | 0.00 | 52 | 1013.0 |
| 20260504181600 | 74 | 58 | 0.9 | 1.7 | 0.00 | 0.00 | 0.00 | 53 | 1012.9 |
| 20260504180520 | 73 | 137 | 0.9 | 0.9 | 0.00 | 0.00 | 0.00 | 58 | 1012.8 |
| 20260504175544 | 73 | 148 | 0.9 | 1.7 | 0.00 | 0.00 | 0.00 | 57 | 1012.8 |
| 20260504174608 | 73 | 151 | 0.9 | 1.7 | 0.00 | 0.00 | 0.00 | 56 | 1012.9 |
| 20260504173528 | 73 | 131 | 0.0 | 0.9 | 0.00 | 0.00 | 0.00 | 54 | 1012.9 |
| 20260504172612 | 70 | 167 | 0.9 | 1.7 | 0.00 | 0.00 | 0.00 | 61 | 1012.9 |
| 20260504171616 | 71 | 143 | 0.9 | 0.9 | 0.00 | 0.00 | 0.00 | 60 | 1013.0 |
| 20260504170533 | 70 | 93 | 0.0 | 0.9 | 0.00 | 0.00 | 0.00 | 61 | 1013.0 |
| 20260504150552 | 57 | 114 | 0.0 | 0.9 | 0.00 | 0.00 | 0.00 | 85 | 1012.8 |
| 20260504140608 | 50 | 0.0 | 0.0 | 0.00 | 0.00 | 0.00 | 97 | 1012.4 | |
| 20260504130520 | 47 | 0.0 | 0.0 | 0.00 | 0.00 | 0.00 | 96 | 1012.1 | |
| 20260504110552 | 49 | 0.0 | 0.0 | 0.00 | 0.00 | 0.00 | 95 | 1012.0 | |
| 20260504100552 | 50 | 0.0 | 0.0 | 0.00 | 0.00 | 0.00 | 94 | 1011.8 | |
| 20260504081600 | 53 | 0.0 | 0.0 | 0.00 | 0.00 | 0.00 | 91 | 1011.7 | |
| 20260504080521 | 53 | 0.0 | 0.0 | 0.00 | 0.00 | 0.00 | 91 | 1011.8 |